KC5TIL Weather Reports


Display with metric or nautical units.
time (UTC)temp
F
wind
direction
speed
MPH
gust
MPH
rain 1hr
in
rain 24hr
in
rain mn
in
humidity
%
barometer
mb
20260904203725 100 112 1.0 2.0 0.00 0.00 0.00 43 1012.9
20260904203221 99 58 2.0 3.0 0.00 0.00 0.00 43 1013.0
20260904202717 99 100 3.0 5.0 0.00 0.00 0.00 45 1013.0
20260904202213 99 131 3.0 3.0 0.00 0.00 0.00 44 1012.9
20260904201708 100 144 4.0 7.0 0.00 0.00 0.00 43 1013.0
20260904201208 100 168 2.0 8.0 0.00 0.00 0.00 42 1013.0
20260904200703 99 45 4.0 6.0 0.00 0.00 0.00 45 1013.2
20260904200157 99 57 6.0 10.0 0.00 0.00 0.00 43 1013.3
20260904195656 101 132 2.0 7.0 0.00 0.00 0.00 42 1013.3
20260904195150 100 147 3.0 7.0 0.00 0.00 0.00 42 1013.5
20260904194650 99 189 5.0 8.0 0.00 0.00 0.00 45 1013.5
20260904194144 99 135 5.0 7.0 0.00 0.00 0.00 45 1013.6
20260904193639 98 126 3.0 6.0 0.00 0.00 0.00 45 1013.3
20260904193136 97 68 3.0 6.0 0.00 0.00 0.00 48 1013.6
20260904192636 97 132 2.0 3.0 0.00 0.00 0.00 49 1013.7
20260904192131 96 174 2.0 9.0 0.00 0.00 0.00 49 1013.7
20260904191628 97 135 3.0 3.0 0.00 0.00 0.00 50 1013.4
20260904191124 99 159 3.0 5.0 0.00 0.00 0.00 47 1013.8
20260904190619 97 159 2.0 2.0 0.00 0.00 0.00 47 1013.8
20260904190115 96 107 1.0 5.0 0.00 0.00 0.00 51 1014.1
20260904185612 96 169 1.0 3.0 0.00 0.00 0.00 50 1013.9
20260904185106 95 176 3.0 6.0 0.00 0.00 0.00 53 1014.1
20260904184605 97 104 2.0 5.0 0.00 0.00 0.00 50 1014.3
20260904184101 97 149 1.0 3.0 0.00 0.00 0.00 48 1014.3
20260904183556 97 87 1.0 3.0 0.00 0.00 0.00 48 1014.4
20260904183051 99 108 1.0 3.0 0.00 0.00 0.00 47 1014.4
20260904182546 98 270 2.0 3.0 0.00 0.00 0.00 45 1014.4
20260904182041 98 201 2.0 2.0 0.00 0.00 0.00 46 1014.6
20260904181537 98 226 3.0 3.0 0.00 0.00 0.00 47 1014.5
20260904181036 97 127 1.0 2.0 0.00 0.00 0.00 47 1014.6
20260904180531 97 80 2.0 5.0 0.00 0.00 0.00 47 1015.0
20260904180026 98 163 3.0 7.0 0.00 0.00 0.00 46 1014.8
20260904175520 96 203 2.0 3.0 0.00 0.00 0.00 48 1014.8
20260904175018 96 137 1.0 3.0 0.00 0.00 0.00 46 1014.9
20260904174514 97 147 2.0 3.0 0.00 0.00 0.00 49 1014.8
20260904174011 96 117 2.0 3.0 0.00 0.00 0.00 47 1015.1
20260904173505 96 132 3.0 5.0 0.00 0.00 0.00 49 1015.2
20260904173000 95 110 3.0 10.0 0.00 0.00 0.00 49 1015.2
20260904172456 97 177 2.0 3.0 0.00 0.00 0.00 49 1015.2
20260904171950 96 138 1.0 3.0 0.00 0.00 0.00 49 1015.3
20260904171446 95 140 0.0 1.0 0.00 0.00 0.00 49 1015.2
20260904170942 96 105 4.0 6.0 0.00 0.00 0.00 49 1015.4
20260904170441 96 188 3.0 6.0 0.00 0.00 0.00 48 1015.4
20260904165937 93 155 2.0 5.0 0.00 0.00 0.00 51 1015.5
20260904165436 93 214 3.0 5.0 0.00 0.00 0.00 51 1015.3
20260904164935 92 132 0.0 1.0 0.00 0.00 0.00 54 1015.5
20260904164431 92 161 1.0 3.0 0.00 0.00 0.00 54 1015.6
20260904163926 94 198 1.0 3.0 0.00 0.00 0.00 51 1015.6
20260904163425 93 216 3.0 6.0 0.00 0.00 0.00 52 1015.6
20260904162920 93 167 3.0 5.0 0.00 0.00 0.00 51 1015.6
20260904162416 92 197 1.0 5.0 0.00 0.00 0.00 54 1015.7
20260904161911 93 122 2.0 5.0 0.00 0.00 0.00 52 1015.5
20260904161406 93 125 2.0 3.0 0.00 0.00 0.00 54 1015.6
20260904160902 93 166 2.0 3.0 0.00 0.00 0.00 54 1015.6
20260904160357 92 129 1.0 5.0 0.00 0.00 0.00 56 1015.5
20260904155852 92 207 3.0 5.0 0.00 0.00 0.00 57 1015.5
20260904155346 94 115 3.0 6.0 0.00 0.00 0.00 54 1015.5
20260904154845 92 131 1.0 5.0 0.00 0.00 0.00 55 1015.8
20260904154340 92 184 3.0 5.0 0.00 0.00 0.00 57 1015.6
20260904153835 91 146 1.0 3.0 0.00 0.00 0.00 58 1015.5
20260904153330 90 148 2.0 3.0 0.00 0.00 0.00 59 1015.4
20260904152826 91 212 4.0 8.0 0.00 0.00 0.00 58 1015.2
20260904152321 90 160 1.0 5.0 0.00 0.00 0.00 60 1015.4
20260904151816 89 119 3.0 5.0 0.00 0.00 0.00 64 1015.4
20260904151315 89 196 3.0 3.0 0.00 0.00 0.00 66 1015.3
20260904150812 89 150 2.0 5.0 0.00 0.00 0.00 65 1015.4
20260904150307 88 141 1.0 3.0 0.00 0.00 0.00 68 1015.5
20260904145804 88 159 3.0 5.0 0.00 0.00 0.00 68 1015.5
20260904145300 87 212 2.0 3.0 0.00 0.00 0.00 73 1015.6
20260904144755 87 95 2.0 2.0 0.00 0.00 0.00 73 1015.8
20260904144251 87 205 3.0 3.0 0.00 0.00 0.00 74 1015.7
20260904143747 85 98 1.0 2.0 0.00 0.00 0.00 77 1015.7
20260904143244 85 123 2.0 3.0 0.00 0.00 0.00 78 1015.7
20260904142739 84 88 1.0 2.0 0.00 0.00 0.00 80 1015.6
20260904142235 84 121 1.0 2.0 0.00 0.00 0.00 80 1015.7
20260904141735 82 139 2.0 3.0 0.00 0.00 0.00 83 1015.6
20260904141231 82 148 3.0 3.0 0.00 0.00 0.00 82 1015.8
20260904140726 82 135 1.0 3.0 0.00 0.00 0.00 83 1015.6
20260904140221 81 133 1.0 2.0 0.00 0.00 0.00 85 1015.8
20260904135720 81 196 0.0 2.0 0.00 0.00 0.00 86 1015.9
20260904135215 81 142 2.0 2.0 0.00 0.00 0.00 85 1015.8
20260904134711 81 205 1.0 3.0 0.00 0.00 0.00 86 1015.7
20260904134210 81 100 1.0 3.0 0.00 0.00 0.00 85 1015.7
20260904133705 81 114 1.0 2.0 0.00 0.00 0.00 85 1015.6
20260904133202 81 108 1.0 3.0 0.00 0.00 0.00 85 1015.6
20260904132701 81 131 1.0 1.0 0.00 0.00 0.00 86 1015.6
20260904132156 80 112 1.0 3.0 0.00 0.00 0.00 87 1015.5
20260904131655 80 139 1.0 2.0 0.00 0.00 0.00 87 1015.4
20260904131151 80 118 0.0 1.0 0.00 0.00 0.00 87 1015.3
20260904130651 80 141 2.0 2.0 0.00 0.00 0.00 87 1015.3
20260904130150 80 126 0.0 1.0 0.00 0.00 0.00 87 1015.4
20260904125647 80 138 1.0 2.0 0.00 0.00 0.00 87 1015.2
20260904125142 80 95 0.0 1.0 0.00 0.00 0.00 87 1015.2
20260904124637 79 124 0.0 0.0 0.00 0.00 0.00 88 1015.4
20260904124133 79 142 0.0 2.0 0.00 0.00 0.00 88 1015.1
20260904123633 79 126 2.0 2.0 0.00 0.00 0.00 88 1015.1
20260904123129 79 129 0.0 2.0 0.00 0.00 0.00 88 1015.1
20260904122623 79 139 1.0 2.0 0.00 0.00 0.00 88 1015.1
20260904122118 79 126 2.0 2.0 0.00 0.00 0.00 88 1014.9
20260904121613 79 140 1.0 2.0 0.00 0.00 0.00 88 1015.1
20260904121109 79 117 1.0 1.0 0.00 0.00 0.00 88 1015.2
20260904120605 79 135 1.0 2.0 0.00 0.00 0.00 88 1014.9
20260904120101 79 123 0.0 1.0 0.00 0.00 0.00 88 1014.8
20260904115555 79 93 2.0 3.0 0.00 0.00 0.00 88 1014.7
20260904115050 79 104 1.0 3.0 0.00 0.00 0.00 88 1014.7
20260904114544 79 127 1.0 3.0 0.00 0.00 0.00 88 1014.7
20260904114039 79 123 1.0 2.0 0.00 0.00 0.00 88 1014.5
20260904113538 79 146 1.0 2.0 0.00 0.00 0.00 88 1014.7
20260904113033 79 123 1.0 2.0 0.00 0.00 0.00 88 1014.8
20260904112528 79 132 1.0 2.0 0.00 0.00 0.00 87 1014.8
20260904112024 79 123 0.0 1.0 0.00 0.00 0.00 87 1014.9
20260904111519 79 132 2.0 2.0 0.00 0.00 0.00 87 1014.5
20260904111015 79 116 0.0 1.0 0.00 0.00 0.00 87 1014.6
20260904110509 79 75 1.0 2.0 0.00 0.00 0.00 87 1014.6
20260904110004 79 111 1.0 1.0 0.00 0.00 0.00 87 1014.6
20260904105458 79 121 0.0 1.0 0.00 0.00 0.00 87 1014.7
20260904104954 79 121 0.0 1.0 0.00 0.00 0.00 87 1014.6
20260904104449 79 134 1.0 1.0 0.00 0.00 0.00 87 1014.4
20260904103945 79 136 1.0 2.0 0.00 0.00 0.00 87 1014.5
20260904103440 79 136 1.0 3.0 0.00 0.00 0.00 87 1014.6
20260904102936 79 83 1.0 1.0 0.00 0.00 0.00 87 1014.4
20260904102432 79 122 1.0 2.0 0.00 0.00 0.00 87 1014.4
20260904101927 79 131 1.0 1.0 0.00 0.00 0.00 87 1014.5
20260904101424 79 115 1.0 1.0 0.00 0.00 0.00 87 1014.5
20260904100920 79 134 0.0 1.0 0.00 0.00 0.00 87 1014.5
20260904100415 79 121 1.0 2.0 0.00 0.00 0.00 87 1014.5
20260904095915 79 136 0.0 1.0 0.00 0.00 0.00 87 1014.4
20260904095409 79 121 1.0 2.0 0.00 0.00 0.00 87 1014.5
20260904094905 79 122 0.0 2.0 0.00 0.00 0.00 87 1014.5
20260904094400 79 118 0.0 2.0 0.00 0.00 0.00 87 1014.3
20260904093856 79 133 1.0 1.0 0.00 0.00 0.00 87 1014.4
20260904093355 78 141 0.0 1.0 0.00 0.00 0.00 87 1014.3
20260904092851 78 125 0.0 1.0 0.00 0.00 0.00 87 1014.3
20260904092348 79 116 0.0 1.0 0.00 0.00 0.00 86 1014.5
20260904091843 79 122 0.0 1.0 0.00 0.00 0.00 86 1014.3
20260904091339 79 128 1.0 2.0 0.00 0.00 0.00 86 1014.2
20260904090833 79 142 1.0 1.0 0.00 0.00 0.00 86 1014.5
20260904090330 79 129 0.0 1.0 0.00 0.00 0.00 86 1014.4
20260904085824 79 114 1.0 2.0 0.00 0.00 0.00 86 1014.3
20260904085314 79 126 0.0 1.0 0.00 0.00 0.00 86 1014.3
20260904084809 78 142 1.0 2.0 0.00 0.00 0.00 86 1014.3
20260904084304 78 130 0.0 1.0 0.00 0.00 0.00 86 1014.3
20260904083800 78 144 1.0 2.0 0.00 0.00 0.00 86 1014.3
20260904083256 79 129 0.0 1.0 0.00 0.00 0.00 86 1014.4
20260904082751 79 108 0.0 2.0 0.00 0.00 0.00 85 1014.2
20260904082245 79 121 1.0 1.0 0.00 0.00 0.00 85 1014.2
20260904081741 79 130 1.0 2.0 0.00 0.00 0.00 85 1014.1
20260904081231 79 126 1.0 2.0 0.00 0.00 0.00 85 1014.0
20260904080727 79 128 0.0 1.0 0.00 0.00 0.00 85 1014.2
20260904080222 79 122 1.0 1.0 0.00 0.00 0.00 85 1014.2
20260904075718 79 116 0.0 1.0 0.00 0.00 0.00 85 1014.0
20260904075213 79 122 0.0 1.0 0.00 0.00 0.00 85 1014.1
20260904074712 79 143 1.0 1.0 0.00 0.00 0.00 85 1014.3
20260904074207 79 84 2.0 3.0 0.00 0.00 0.00 85 1014.4
20260904073702 79 110 1.0 1.0 0.00 0.00 0.00 85 1014.3
20260904073158 79 110 0.0 1.0 0.00 0.00 0.00 85 1014.2
20260904072654 79 133 2.0 3.0 0.00 0.00 0.00 84 1014.1
20260904072148 79 125 2.0 2.0 0.00 0.00 0.00 84 1014.4
20260904071644 79 121 1.0 1.0 0.00 0.00 0.00 84 1014.3
20260904071139 79 123 0.0 3.0 0.00 0.00 0.00 84 1014.4
20260904070638 79 126 1.0 3.0 0.00 0.00 0.00 83 1014.3
20260904070133 79 123 0.0 2.0 0.00 0.00 0.00 83 1014.5
20260904065632 79 115 1.0 2.0 0.00 0.00 0.00 83 1014.5
20260904065130 79 123 1.0 2.0 0.00 0.00 0.00 83 1014.7
20260904064625 79 128 0.0 1.0 0.00 0.00 0.00 83 1014.7
20260904064125 79 139 1.0 2.0 0.00 0.00 0.00 83 1014.7
20260904063621 79 128 0.0 3.0 0.00 0.00 0.00 83 1014.6
20260904063116 79 125 1.0 2.0 0.00 0.00 0.00 83 1014.5
20260904062612 79 144 0.0 5.0 0.00 0.00 0.00 83 1014.7
20260904062107 79 130 0.0 5.0 0.00 0.00 0.00 82 1014.6
20260904061603 79 126 1.0 2.0 0.00 0.00 0.00 82 1014.6
20260904061059 79 150 0.0 1.0 0.00 0.00 0.00 82 1014.7
20260904060555 79 134 1.0 2.0 0.00 0.00 0.00 82 1014.7
20260904060051 79 123 1.0 7.0 0.00 0.00 0.00 82 1014.6
20260904055546 80 112 1.0 5.0 0.00 0.00 0.00 81 1014.7
20260904055041 80 165 0.0 2.0 0.00 0.00 0.00 81 1014.8
20260904054537 80 106 0.0 1.0 0.00 0.00 0.00 81 1014.9
20260904054033 80 183 3.0 6.0 0.00 0.00 0.00 81 1014.7
20260904053532 80 155 1.0 2.0 0.00 0.00 0.00 81 1014.6
20260904053028 80 140 1.0 2.0 0.00 0.00 0.00 80 1014.7
20260904052524 80 118 3.0 6.0 0.00 0.00 0.00 80 1014.6
20260904052020 80 205 2.0 3.0 0.00 0.00 0.00 79 1014.6
20260904051516 80 138 2.0 5.0 0.00 0.00 0.00 79 1014.4
20260904051015 80 142 1.0 6.0 0.00 0.00 0.00 79 1014.5
20260904050512 80 135 3.0 5.0 0.00 0.00 0.00 78 1014.6
20260904050007 80 188 1.0 3.0 0.00 0.00 0.00 77 1014.7
20260904045502 80 146 1.0 3.0 0.00 0.00 0.00 77 1014.5
20260904044956 81 153 3.0 5.0 0.00 0.00 0.00 76 1014.6
20260904044453 81 174 1.0 2.0 0.00 0.00 0.00 76 1014.7
20260904043949 81 139 1.0 3.0 0.00 0.00 0.00 75 1014.6
20260904043445 81 133 1.0 5.0 0.00 0.00 0.00 74 1014.5
20260904042941 81 128 1.0 2.0 0.00 0.00 0.00 74 1014.5
20260904042437 81 148 1.0 5.0 0.00 0.00 0.00 73 1014.6
20260904041931 81 141 3.0 3.0 0.00 0.00 0.00 73 1014.6
20260904041428 81 125 1.0 5.0 0.00 0.00 0.00 72 1014.6
20260904040924 82 154 1.0 6.0 0.00 0.00 0.00 72 1014.7
20260904040423 82 165 4.0 6.0 0.00 0.00 0.00 71 1014.6
20260904035920 82 156 1.0 5.0 0.00 0.00 0.00 71 1014.5
20260904035415 82 150 2.0 3.0 0.00 0.00 0.00 71 1014.5
20260904034914 82 146 2.0 5.0 0.00 0.00 0.00 72 1014.5
20260904034410 82 153 3.0 5.0 0.00 0.00 0.00 72 1014.6
20260904033905 82 170 1.0 2.0 0.00 0.00 0.00 73 1014.5
20260904033402 82 128 1.0 3.0 0.00 0.00 0.00 74 1014.3
20260904032857 82 146 2.0 3.0 0.00 0.00 0.00 73 1014.4
20260904032352 82 190 2.0 3.0 0.00 0.00 0.00 73 1014.4
20260904031846 82 88 3.0 5.0 0.00 0.00 0.00 73 1014.4
20260904031341 82 157 2.0 5.0 0.00 0.00 0.00 73 1014.3
20260904030838 83 146 2.0 5.0 0.00 0.00 0.00 73 1014.4
20260904030333 83 141 1.0 6.0 0.00 0.00 0.00 73 1014.2
20260904025829 83 155 4.0 7.0 0.00 0.00 0.00 73 1014.2
20260904025325 83 152 2.0 3.0 0.00 0.00 0.00 74 1014.2
20260904024824 83 125 2.0 3.0 0.00 0.00 0.00 73 1014.1
20260904024319 83 193 3.0 5.0 0.00 0.00 0.00 73 1014.0
20260904023816 84 182 4.0 5.0 0.00 0.00 0.00 74 1014.1
20260904023312 84 130 2.0 3.0 0.00 0.00 0.00 74 1014.0
20260904022811 84 172 5.0 7.0 0.00 0.00 0.00 74 1013.9
20260904022308 84 132 3.0 3.0 0.00 0.00 0.00 74 1013.7
20260904021805 84 131 1.0 3.0 0.00 0.00 0.00 76 1013.6
20260904021259 84 130 2.0 3.0 0.00 0.00 0.00 76 1013.6
20260904020754 84 157 2.0 3.0 0.00 0.00 0.00 75 1013.3
20260904020254 84 138 3.0 5.0 0.00 0.00 0.00 74 1013.2
20260904015753 84 128 2.0 6.0 0.00 0.00 0.00 75 1013.1
20260904015248 85 144 4.0 6.0 0.00 0.00 0.00 74 1013.2
20260904014746 85 194 2.0 5.0 0.00 0.00 0.00 71 1013.0
20260904014242 85 109 2.0 5.0 0.00 0.00 0.00 68 1012.8
20260904013738 85 152 2.0 5.0 0.00 0.00 0.00 67 1012.6
20260904013234 86 183 3.0 6.0 0.00 0.00 0.00 65 1012.7
20260904012730 86 131 2.0 5.0 0.00 0.00 0.00 65 1012.4
20260904012229 86 174 2.0 3.0 0.00 0.00 0.00 64 1012.5
20260904011728 86 124 2.0 5.0 0.00 0.00 0.00 63 1012.4
20260904011223 86 116 3.0 5.0 0.00 0.00 0.00 63 1012.3
20260904010718 86 136 3.0 5.0 0.00 0.00 0.00 62 1012.3
20260904010215 86 127 3.0 5.0 0.00 0.00 0.00 62 1012.2
20260904005710 87 159 2.0 5.0 0.00 0.00 0.00 62 1012.3
20260904005206 87 113 4.0 6.0 0.00 0.00 0.00 63 1012.2
20260904004701 87 139 2.0 5.0 0.00 0.00 0.00 64 1012.1
20260904004201 87 111 2.0 5.0 0.00 0.00 0.00 65 1012.1
20260904003651 87 166 4.0 7.0 0.00 0.00 0.00 64 1012.3
20260904003147 87 180 4.0 6.0 0.00 0.00 0.00 64 1012.3
20260904002643 88 142 5.0 9.0 0.00 0.00 0.00 63 1012.1
20260904002138 88 141 2.0 3.0 0.00 0.00 0.00 64 1012.2
20260904001633 88 149 5.0 7.0 0.00 0.00 0.00 63 1012.2
20260904001132 88 159 1.0 3.0 0.00 0.00 0.00 64 1012.3
20260904000627 89 174 4.0 7.0 0.00 0.00 0.00 63 1012.2
20260904000123 89 141 4.0 7.0 0.00 0.00 0.00 63 1012.1
20260903235622 89 142 3.0 5.0 0.00 0.00 0.00 65 1012.0
20260903235119 89 148 4.0 7.0 0.00 0.00 0.00 63 1011.9
20260903234613 89 107 6.0 9.0 0.00 0.00 0.00 63 1012.0
20260903234109 89 115 3.0 6.0 0.00 0.00 0.00 63 1011.8
20260903233605 89 125 3.0 8.0 0.00 0.00 0.00 63 1011.8
20260903233101 89 140 3.0 6.0 0.00 0.00 0.00 64 1011.8
20260903232555 89 115 4.0 6.0 0.00 0.00 0.00 66 1011.7
20260903232051 89 77 4.0 7.0 0.00 0.00 0.00 63 1011.7
20260903231545 90 143 3.0 5.0 0.00 0.00 0.00 64 1011.8
20260903231039 90 104 3.0 5.0 0.00 0.00 0.00 63 1011.8
20260903230536 91 158 2.0 6.0 0.00 0.00 0.00 62 1011.7
20260903230034 91 115 2.0 5.0 0.00 0.00 0.00 62 1011.6
20260903225532 92 158 5.0 7.0 0.00 0.00 0.00 60 1011.7
20260903225028 92 131 3.0 5.0 0.00 0.00 0.00 60 1011.5
20260903224524 91 155 2.0 5.0 0.00 0.00 0.00 62 1011.5
20260903224020 92 103 3.0 5.0 0.00 0.00 0.00 61 1011.5
20260903223519 92 147 2.0 5.0 0.00 0.00 0.00 61 1011.4
20260903223018 91 163 2.0 5.0 0.00 0.00 0.00 61 1011.7
20260903222513 91 132 5.0 7.0 0.00 0.00 0.00 61 1011.7
20260903222012 92 103 3.0 5.0 0.00 0.00 0.00 62 1011.7
20260903221508 92 96 3.0 8.0 0.00 0.00 0.00 60 1011.7
20260903221005 92 131 3.0 5.0 0.00 0.00 0.00 61 1011.7
20260903220459 92 152 2.0 3.0 0.00 0.00 0.00 62 1011.8
20260903215956 92 88 3.0 5.0 0.00 0.00 0.00 61 1011.8
20260903215453 92 177 3.0 6.0 0.00 0.00 0.00 63 1011.7
20260903214951 94 140 3.0 5.0 0.00 0.00 0.00 58 1011.8
20260903214446 93 116 2.0 6.0 0.00 0.00 0.00 62 1011.7
20260903213941 92 25 2.0 6.0 0.00 0.00 0.00 62 1011.8
20260903213437 92 141 2.0 5.0 0.00 0.00 0.00 62 1011.8
20260903212932 92 152 3.0 6.0 0.00 0.00 0.00 62 1011.7
20260903212428 91 117 1.0 6.0 0.00 0.00 0.00 64 1011.8
20260903211922 90 102 0.0 6.0 0.00 0.00 0.00 66 1012.0
20260903211418 91 165 3.0 5.0 0.00 0.00 0.00 64 1012.1
20260903210914 92 143 3.0 5.0 0.00 0.00 0.00 63 1011.8
20260903210413 91 166 0.0 6.0 0.00 0.00 0.00 62 1012.1
20260903205909 92 110 2.0 6.0 0.00 0.00 0.00 63 1012.1
20260903205409 93 160 1.0 2.0 0.00 0.00 0.00 60 1012.3
20260903204903 92 148 2.0 3.0 0.00 0.00 0.00 61 1012.4
20260903204359 91 129 2.0 3.0 0.00 0.00 0.00 64 1012.5